Simultaneous Nadir Overpasses (SNOs) Predictions

Prediction of SNOs between NOAA-20 and NOAA-19 Satellite Orbit:

Table of predicted SNOs for the next 14.0 days since TLE Epoch: 4/10/2021
Index Date (NOAA-20) Time (NOAA-20) Lat,Lon (NOAA-20) SZA (NOAA-20 ) Date (NOAA-19) Time (NOAA-19) Lat,Lon (NOAA-19) SZA (NOAA-19 ) Distance(km) Time Diff (sec)
1 04/18/2021 03:31:19 78.12, 101.95 68.36 04/18/2021 03:30:14 78.11, 98.17 68.76 86.56 65
2 04/18/2021 04:22:12 -78.46, -92.61 111.19 04/18/2021 04:21:08 -78.45, -92.50 111.18 2.71 64
3 04/18/2021 05:12:57 78.44, 74.81 68.78 04/18/2021 05:12:05 78.46, 74.83 68.81 2.01 52
4 04/18/2021 06:03:42 -78.46,-118.00 111.21 04/18/2021 06:03:08 -78.46,-117.91 111.20 2.03 34
5 04/18/2021 06:54:27 78.44, 49.42 68.76 04/18/2021 06:54:05 78.47, 49.42 68.79 3.24 22
6 04/18/2021 07:45:12 -78.46,-143.39 111.23 04/18/2021 07:45:08 -78.47,-143.32 111.22 2.09 4
7 04/18/2021 08:35:58 78.48, 23.80 68.79 04/18/2021 08:36:06 78.45, 23.78 68.76 3.76 8
8 04/18/2021 09:26:42 -78.46,-168.78 111.25 04/18/2021 09:27:08 -78.49,-168.72 111.25 2.83 26
9 04/18/2021 10:17:28 78.48, -1.59 68.77 04/18/2021 10:18:06 78.46, -1.62 68.74 2.55 38
10 04/18/2021 11:08:12 -78.47, 165.83 111.27 04/18/2021 11:09:08 -78.50, 165.87 111.27 3.87 56
11 04/18/2021 11:58:58 78.49, -26.98 68.75 04/18/2021 12:00:06 78.48, -27.03 68.72 1.56 68



Historial Predications of SNOs between NOAA-20 and NOAA-19
